This is the latest recevied weather packets stored in our database for station/object PA3FNT-13. If no packets are shown the sender has not sent any weather packets the latest 10 day(s).
| Time | Temp. | Humidity | Pressure | Rain* | Wind** | Luminosity | Snow |
|---|---|---|---|---|---|---|---|
| 1787831148 | 28.33° C | 41% | 1010.8 hPa | - | - | - | - |
| 1787830248 | 28.33° C | 40% | 1011.1 hPa | - | - | - | - |
| 1787829348 | 28.89° C | 38% | 1011.3 hPa | - | - | - | - |
| 1787828448 | 28.33° C | 38% | 1011.4 hPa | - | - | - | - |
| 1787827548 | 28.33° C | 39% | 1011.5 hPa | - | - | - | - |
| 1787826647 | 28.33° C | 39% | 1011.6 hPa | - | - | - | - |
| 1787825747 | 28.33° C | 39% | 1011.8 hPa | - | - | - | - |
| 1787824847 | 27.78° C | 39% | 1011.9 hPa | - | - | - | - |
| 1787823947 | 27.78° C | 39% | 1012.1 hPa | - | - | - | - |
| 1787823047 | 27.78° C | 39% | 1012.1 hPa | - | - | - | - |
| 1787822147 | 28.33° C | 38% | 1012.1 hPa | - | - | - | - |
| 1787821246 | 28.33° C | 38% | 1012.5 hPa | - | - | - | - |
| 1787820346 | 28.33° C | 38% | 1012.5 hPa | - | - | - | - |
| 1787819446 | 28.33° C | 38% | 1012.7 hPa | - | - | - | - |
| 1787818546 | 27.78° C | 38% | 1012.8 hPa | - | - | - | - |
| 1787817646 | 28.33° C | 37% | 1012.9 hPa | - | - | - | - |
| 1787816745 | 29.44° C | 36% | 1013.2 hPa | - | - | - | - |
| 1787815845 | 28.33° C | 38% | 1013.3 hPa | - | - | - | - |
| 1787814945 | 30° C | 36% | 1013.5 hPa | - | - | - | - |
| 1787814045 | 27.78° C | 39% | 1013.6 hPa | - | - | - | - |
| 1787813145 | 26.67° C | 40% | 1013.5 hPa | - | - | - | - |
| 1787812245 | 26.67° C | 40% | 1013.7 hPa | - | - | - | - |
| 1787811344 | 27.22° C | 39% | 1013.9 hPa | - | - | - | - |
| 1787810444 | 28.89° C | 36% | 1014 hPa | - | - | - | - |
| 1787809544 | 28.89° C | 36% | 1014 hPa | - | - | - | - |
* Rain since midnight (hover to see other rain measurements)
** Current wind speed in m/s (hover to see current wind gust speed)